Overview Statistics Trail Chart Weather Telemetry Raw packets
 

This is the latest recevied weather packets stored in our database for station/object SV1RVP-13. If no packets are shown the sender has not sent any weather packets the latest 10 day(s).

<< 32 33 34 35 36 37 38 >>
Time Temp. Humidity Pressure Rain* Wind** Luminosity Snow
1788202729 30° C 44% 1013.5 hPa 0 mm - - -
1788202120 30° C 44% 1013.3 hPa 0 mm - - -
1788201517 30.56° C 44% 1013.1 hPa 0 mm - - -
1788200935 30.56° C 44% 1013 hPa 0 mm - - -
1788200321 30.56° C 44% 1013.1 hPa 0 mm - - -
1788199116 30.56° C 44% 1012.9 hPa 0 mm - - -
1788198515 30.56° C 44% 1013 hPa 0 mm - - -
1788197929 31.11° C 44% 1012.9 hPa 0 mm - - -
1788197320 31.11° C 43% 1012.9 hPa 0 mm - - -
1788196719 31.11° C 42% 1012.7 hPa 0 mm - - -
1788196150 31.67° C 42% 1012.7 hPa 0 mm - - -
1788195518 31.67° C 42% 1012.6 hPa 0 mm - - -
1788194917 31.67° C 42% 1012.7 hPa 0 mm - - -
1788194314 31.67° C 42% 1012.7 hPa 0 mm - - -
1788193720 31.67° C 42% 1012.6 hPa 0 mm - - -
1788193121 32.22° C 47% 1012.5 hPa 0 mm - - -
1788192525 32.22° C 47% 1012.4 hPa 0 mm - - -
1788191910 32.22° C 47% 1012.5 hPa 0 mm - - -
1788191317 32.22° C 46% 1012.6 hPa 0 mm - - -
1788190717 32.22° C 47% 1012.5 hPa 0 mm - - -
1788190107 32.22° C 47% 1012.7 hPa 0 mm - - -
1788189512 32.78° C 47% 1012.8 hPa 0 mm - - -
1788188914 32.22° C 48% 1012.6 hPa 0 mm - - -
1788188328 32.78° C 50% 1012.6 hPa 0 mm - - -
1788187716 32.22° C 49% 1012.6 hPa 0 mm - - -

* Rain since midnight (hover to see other rain measurements)
** Current wind speed in m/s (hover to see current wind gust speed)